Location: Grandview
(34.8900°N, 117.1058°W)
Time: 22:40:40
(UTC-07:00)

Tiangong 2 - Pass Details

Date: 10 October 2017
Orbit: 388 x 392 km, 42.8° (Epoch: 16 October)

Event Time Altitude Azimuth Distance (km) Brightness Sun altitude
Exits shadow 05:38:21 31° 308° (NW) 706 2.0 -15.6°
Maximum altitude 05:39:05 36° 341° (NNW) 634 2.0 -15.4°
Drops below altitude 10° 05:42:05 10° 50° (NE) 1,421 4.7 -14.8°
Sets 05:44:16 0° 59° (ENE) 2,278 6.1 -14.4°
